Midpoint, URN, Start Time, Stop Time, Target_name, Target_lid_reference, sub_solar_latitude, sub_solar_longitude, subspacecraft_latitude, subspacecraft_longitude, target_center_distance, spacecraft_altitude, juno:L_Band_geom:minimum_latitude, juno:L_Band_geom:maximum_latitude, juno:L_Band_geom:minimum_longitude, juno:L_Band_geom:maximum_longitude, juno:L_Band_geom:horizontal_pixel_footprint, juno:L_Band_geom:vertical_pixel_footprint, juno:L_Band_geom:incidence_angle, juno:L_Band_geom:emission_angle, juno:L_Band_geom:phase_angle,juno:M_Band_geom:minimum_latitude, juno:M_Band_geom:maximum_latitude, juno:M_Band_geom:minimum_longitude, juno:M_Band_geom:maximum_longitude, juno:M_Band_geom:horizontal_pixel_footprint, juno:M_Band_geom:vertical_pixel_footprint, juno:M_Band_geom:incidence_angle, juno:M_Band_geom:emission_angle, juno:M_Band_geom:phase_angle, File Size
2021-04-15T15:00:38.77Z,urn:nasa:pds:juno_jiram:data_raw:jir_img_edr_2021105t150041_v01,2021-04-15T15:00:38.723Z,2021-04-15T15:00:38.823Z,IO,urn:nasa:pds:context:target:satellite.jupiter.io,-0.05954,344.8369,8.9199,87.8144,604176.3463,602296.2737,-13.0383,14.1165,161.498,171.013,144551.1057,144551.1057,,,,,,,,,,,,,0.227
2021-04-15T15:01:08.82Z,urn:nasa:pds:juno_jiram:data_raw:jir_img_edr_2021105t150111_v01,2021-04-15T15:01:08.774Z,2021-04-15T15:01:08.874Z,IO,urn:nasa:pds:context:target:satellite.jupiter.io,-0.059539,344.7662,8.9286,87.7133,604306.9582,602426.8714,-36.8122,36.4968,139.445,180.5608,144582.4491,144582.4491,,,,,,,,,,,,,0.227
2021-04-15T15:01:38.87Z,urn:nasa:pds:juno_jiram:data_raw:jir_img_edr_2021105t150141_v01,2021-04-15T15:01:38.823Z,2021-04-15T15:01:38.923Z,IO,urn:nasa:pds:context:target:satellite.jupiter.io,-0.059537,344.6955,8.9372,87.6123,604437.5478,602557.4469,-46.7692,50.2794,125.353,173.5572,144613.7873,144613.7873,,,,,,,,,,,,,0.227
2021-04-15T15:02:08.92Z,urn:nasa:pds:juno_jiram:data_raw:jir_img_edr_2021105t150211_v01,2021-04-15T15:02:08.873Z,2021-04-15T15:02:08.973Z,IO,urn:nasa:pds:context:target:satellite.jupiter.io,-0.059535,344.6248,8.9458,87.5113,604568.1263,602688.0114,-51.8458,61.1531,113.541,178.7775,144645.1227,144645.1227,,,,,,,,,,,,,0.227
2021-04-15T15:02:38.97Z,urn:nasa:pds:juno_jiram:data_raw:jir_img_edr_2021105t150241_v01,2021-04-15T15:02:38.922Z,2021-04-15T15:02:39.022Z,IO,urn:nasa:pds:context:target:satellite.jupiter.io,-0.059534,344.5541,8.9544,87.4104,604698.683,602818.5541,-60.7242,72.9166,102.854,189.371,144676.453,144676.453,,,,,,,,,,,,,0.227
2021-04-15T15:03:09.20Z,urn:nasa:pds:juno_jiram:data_raw:jir_img_edr_2021105t150311_v01,2021-04-15T15:03:08.973Z,2021-04-15T15:03:09.073Z,IO,urn:nasa:pds:context:target:satellite.jupiter.io,-0.059532,344.4834,8.9629,87.3096,604829.229,602949.0861,-65.8895,81.4276,92.643,188.521,144707.7807,144707.7807,,,,,,,,,,,,,0.227
2021-04-15T15:03:39.70Z,urn:nasa:pds:juno_jiram:data_raw:jir_img_edr_2021105t150341_v01,2021-04-15T15:03:39.022Z,2021-04-15T15:03:39.122Z,IO,urn:nasa:pds:context:target:satellite.jupiter.io,-0.05953,344.4127,8.9715,87.2088,604959.745,603079.5882,-67.2292,84.6097,48.69,198.2888,144739.1012,144739.1012,,,,,,,,,,,,,0.227
2021-04-15T15:04:09.12Z,urn:nasa:pds:juno_jiram:data_raw:jir_img_edr_2021105t150411_v01,2021-04-15T15:04:09.073Z,2021-04-15T15:04:09.173Z,IO,urn:nasa:pds:context:target:satellite.jupiter.io,-0.059528,344.342,8.9801,87.1081,605090.2464,603210.0758,-77.5184,86.3208,32.798,295.1438,144770.4182,144770.4182,,,,,,,,,,,,,0.227
2021-04-15T15:04:39.17Z,urn:nasa:pds:juno_jiram:data_raw:jir_img_edr_2021105t150441_v01,2021-04-15T15:04:39.122Z,2021-04-15T15:04:39.222Z,IO,urn:nasa:pds:context:target:satellite.jupiter.io,-0.059527,344.2713,8.9887,87.0074,605220.7137,603340.5294,-75.5622,76.1125,3.599,180.5548,144801.7271,144801.7271,,,,,,,,,,,,,0.227
2021-04-15T15:05:09.22Z,urn:nasa:pds:juno_jiram:data_raw:jir_img_edr_2021105t150511_v01,2021-04-15T15:05:09.172Z,2021-04-15T15:05:09.272Z,IO,urn:nasa:pds:context:target:satellite.jupiter.io,-0.059525,344.2006,8.9972,86.9069,605351.1626,603470.9645,-69.0464,80.076,0.499,173.5797,144833.0315,144833.0315,,,,,,,,,,,,,0.227
2021-04-15T15:05:39.27Z,urn:nasa:pds:juno_jiram:data_raw:jir_img_edr_2021105t150541_v01,2021-04-15T15:05:39.221Z,2021-04-15T15:05:39.321Z,IO,urn:nasa:pds:context:target:satellite.jupiter.io,-0.059523,344.1299,9.0058,86.8063,605481.5737,603601.362,-68.0241,80.4826,0.537,354.8794,144864.3269,144864.3269,,,,,,,,,,,,,0.227
2021-04-15T15:06:09.32Z,urn:nasa:pds:juno_jiram:data_raw:jir_img_edr_2021105t150611_v01,2021-04-15T15:06:09.271Z,2021-04-15T15:06:09.371Z,IO,urn:nasa:pds:context:target:satellite.jupiter.io,-0.059522,344.0592,9.0144,86.7059,605611.9579,603731.7326,-68.3204,83.2121,3.432,355.8348,144895.6158,144895.6158,,,,,,,,,,,,,0.227
2021-04-15T15:06:39.37Z,urn:nasa:pds:juno_jiram:data_raw:jir_img_edr_2021105t150641_v01,2021-04-15T15:06:39.321Z,2021-04-15T15:06:39.421Z,IO,urn:nasa:pds:context:target:satellite.jupiter.io,-0.05952,343.9885,9.0229,86.6054,605742.3091,603862.0703,-65.6794,86.3781,1.329,355.6052,144926.8969,144926.8969,,,,,,,,,,,,,0.227
2021-04-15T15:07:09.42Z,urn:nasa:pds:juno_jiram:data_raw:jir_img_edr_2021105t150711_v01,2021-04-15T15:07:09.371Z,2021-04-15T15:07:09.471Z,IO,urn:nasa:pds:context:target:satellite.jupiter.io,-0.059518,343.9178,9.0314,86.5051,605872.6253,603992.3731,-62.4363,89.883,0.656,358.6523,144958.1695,144958.1695,,,,,,,,,,,,,0.227
2021-04-15T15:07:39.47Z,urn:nasa:pds:juno_jiram:data_raw:jir_img_edr_2021105t150741_v01,2021-04-15T15:07:39.420Z,2021-04-15T15:07:39.520Z,IO,urn:nasa:pds:context:target:satellite.jupiter.io,-0.059516,343.8471,9.04,86.4048,606002.9002,604122.6346,-65.9361,88.6973,2.109,357.9286,144989.4323,144989.4323,,,,,,,,,,,,,0.227
2021-04-15T15:08:09.52Z,urn:nasa:pds:juno_jiram:data_raw:jir_img_edr_2021105t150811_v01,2021-04-15T15:08:09.471Z,2021-04-15T15:08:09.571Z,IO,urn:nasa:pds:context:target:satellite.jupiter.io,-0.059515,343.7763,9.0485,86.3046,606133.145,604252.8661,-73.1067,77.7033,3.836,356.8063,145020.6879,145020.6879,,,,,,,,,,,,,0.227
2021-04-15T15:08:39.57Z,urn:nasa:pds:juno_jiram:data_raw:jir_img_edr_2021105t150841_v01,2021-04-15T15:08:39.520Z,2021-04-15T15:08:39.620Z,IO,urn:nasa:pds:context:target:satellite.jupiter.io,-0.059513,343.7056,9.057,86.2044,606263.3403,604383.0481,-72.4918,77.8509,1.291,359.0586,145051.9315,145051.9315,,,,,,,,,,,,,0.227
2021-04-15T15:09:09.62Z,urn:nasa:pds:juno_jiram:data_raw:jir_img_edr_2021105t150912_v01,2021-04-15T15:09:09.570Z,2021-04-15T15:09:09.670Z,IO,urn:nasa:pds:context:target:satellite.jupiter.io,-0.059511,343.6349,9.0656,86.1043,606393.4971,604513.1918,-72.5935,79.3062,0.232,358.4845,145083.166,145083.166,,,,,,,,,,,,,0.227
2021-04-15T15:09:39.67Z,urn:nasa:pds:juno_jiram:data_raw:jir_img_edr_2021105t150942_v01,2021-04-15T15:09:39.620Z,2021-04-15T15:09:39.720Z,IO,urn:nasa:pds:context:target:satellite.jupiter.io,-0.05951,343.5642,9.0741,86.0043,606523.6093,604643.2908,-68.4725,81.0538,0.73,355.801,145114.3898,145114.3898,,,,,,,,,,,,,0.227
2021-04-15T15:10:09.72Z,urn:nasa:pds:juno_jiram:data_raw:jir_img_edr_2021105t151012_v01,2021-04-15T15:10:09.670Z,2021-04-15T15:10:09.770Z,IO,urn:nasa:pds:context:target:satellite.jupiter.io,-0.059508,343.4935,9.0826,85.9043,606653.6748,604773.3433,-67.153,83.2472,1.71,359.9991,145145.6024,145145.6024,,,,,,,,,,,,,0.227
2021-04-15T15:10:39.76Z,urn:nasa:pds:juno_jiram:data_raw:jir_img_edr_2021105t151042_v01,2021-04-15T15:10:39.719Z,2021-04-15T15:10:39.819Z,IO,urn:nasa:pds:context:target:satellite.jupiter.io,-0.059506,343.4228,9.0911,85.8044,606783.6876,604903.3431,-67.238,83.0915,5.664,357.8478,145176.8023,145176.8023,,,,,,,,,,,,,0.227
2021-04-15T15:11:09.81Z,urn:nasa:pds:juno_jiram:data_raw:jir_img_edr_2021105t151112_v01,2021-04-15T15:11:09.769Z,2021-04-15T15:11:09.869Z,IO,urn:nasa:pds:context:target:satellite.jupiter.io,-0.059504,343.3521,9.0996,85.7045,606913.6541,605033.2967,-66.9303,86.0295,1.312,356.8775,145207.9912,145207.9912,,,,,,,,,,,,,0.227
2021-04-15T15:11:39.86Z,urn:nasa:pds:juno_jiram:data_raw:jir_img_edr_2021105t151142_v01,2021-04-15T15:11:39.819Z,2021-04-15T15:11:39.919Z,IO,urn:nasa:pds:context:target:satellite.jupiter.io,-0.059503,343.2814,9.1081,85.6047,607043.5684,605163.198,-64.588,88.7847,0.197,358.6222,145239.1675,145239.1675,,,,,,,,,,,,,0.227
2021-04-15T15:12:09.91Z,urn:nasa:pds:juno_jiram:data_raw:jir_img_edr_2021105t151212_v01,2021-04-15T15:12:09.868Z,2021-04-15T15:12:09.968Z,IO,urn:nasa:pds:context:target:satellite.jupiter.io,-0.059501,343.2107,9.1166,85.505,607173.4239,605293.0408,-65.242,88.7212,0,356.9744,145270.3298,145270.3298,,,,,,,,,,,,,0.227
2021-04-15T15:12:39.96Z,urn:nasa:pds:juno_jiram:data_raw:jir_img_edr_2021105t151242_v01,2021-04-15T15:12:39.919Z,2021-04-15T15:12:40.019Z,IO,urn:nasa:pds:context:target:satellite.jupiter.io,-0.059499,343.14,9.125,85.4053,607303.232,605422.8361,-78.5815,76.3911,0.194,357.4466,145301.4807,145301.4807,,,,,,,,,,,,,0.227
2021-04-15T15:13:10.10Z,urn:nasa:pds:juno_jiram:data_raw:jir_img_edr_2021105t151312_v01,2021-04-15T15:13:09.968Z,2021-04-15T15:13:10.068Z,IO,urn:nasa:pds:context:target:satellite.jupiter.io,-0.059498,343.0693,9.1335,85.3056,607432.9732,605552.5646,-77.6326,76.6085,1.08,358.2355,145332.6155,145332.6155,,,,,,,,,,,,,0.227
2021-04-15T15:13:40.60Z,urn:nasa:pds:juno_jiram:data_raw:jir_img_edr_2021105t151342_v01,2021-04-15T15:13:40.018Z,2021-04-15T15:13:40.118Z,IO,urn:nasa:pds:context:target:satellite.jupiter.io,-0.059496,342.9986,9.142,85.2061,607562.6587,605682.2376,-73.8117,78.1295,2.14,359.8057,145363.737,145363.737,,,,,,,,,,,,,0.227
2021-04-15T15:14:10.11Z,urn:nasa:pds:juno_jiram:data_raw:jir_img_edr_2021105t151412_v01,2021-04-15T15:14:10.068Z,2021-04-15T15:14:10.168Z,IO,urn:nasa:pds:context:target:satellite.jupiter.io,-0.059494,342.9279,9.1504,85.1066,607692.2823,605811.8486,-72.0611,79.8912,0.416,358.9041,145394.8437,145394.8437,,,,,,,,,,,,,0.227
2021-04-15T15:14:40.16Z,urn:nasa:pds:juno_jiram:data_raw:jir_img_edr_2021105t151442_v01,2021-04-15T15:14:40.118Z,2021-04-15T15:14:40.218Z,IO,urn:nasa:pds:context:target:satellite.jupiter.io,-0.059493,342.8572,9.1589,85.0071,607821.8419,605941.3957,-70.8639,82.4354,2.1,354.8223,145425.935,145425.935,,,,,,,,,,,,,0.227
2021-04-15T15:15:10.21Z,urn:nasa:pds:juno_jiram:data_raw:jir_img_edr_2021105t151512_v01,2021-04-15T15:15:10.167Z,2021-04-15T15:15:10.267Z,IO,urn:nasa:pds:context:target:satellite.jupiter.io,-0.059491,342.7865,9.1674,84.9077,607951.3315,606070.8729,-68.4159,83.5175,0.19,351.7385,145457.0095,145457.0095,,,,,,,,,,,,,0.227
2021-04-15T15:15:40.26Z,urn:nasa:pds:juno_jiram:data_raw:jir_img_edr_2021105t151542_v01,2021-04-15T15:15:40.218Z,2021-04-15T15:15:40.318Z,IO,urn:nasa:pds:context:target:satellite.jupiter.io,-0.059489,342.7158,9.1758,84.8084,608080.762,606200.291,-64.4147,88.5858,2.15,355.0404,145488.0698,145488.0698,,,,,,,,,,,,,0.227
2021-04-15T15:16:10.31Z,urn:nasa:pds:juno_jiram:data_raw:jir_img_edr_2021105t151612_v01,2021-04-15T15:16:10.267Z,2021-04-15T15:16:10.367Z,IO,urn:nasa:pds:context:target:satellite.jupiter.io,-0.059487,342.6451,9.1843,84.7091,608210.1142,606329.631,-62.5129,84.9042,1.853,359.4525,145519.1115,145519.1115,,,,,,,,,,,,,0.227
2021-04-15T15:16:40.36Z,urn:nasa:pds:juno_jiram:data_raw:jir_img_edr_2021105t151642_v01,2021-04-15T15:16:40.318Z,2021-04-15T15:16:40.418Z,IO,urn:nasa:pds:context:target:satellite.jupiter.io,-0.059486,342.5744,9.1927,84.6099,608339.4037,606458.9083,-71.7513,79.9794,4.99,359.8234,145550.138,145550.138,,,,,,,,,,,,,0.227
2021-04-15T15:17:10.41Z,urn:nasa:pds:juno_jiram:data_raw:jir_img_edr_2021105t151712_v01,2021-04-15T15:17:10.367Z,2021-04-15T15:17:10.467Z,IO,urn:nasa:pds:context:target:satellite.jupiter.io,-0.059484,342.5037,9.2011,84.5108,608468.6111,606588.1035,-68.8742,81.4794,0.642,355.0792,145581.1448,145581.1448,,,,,,,,,,,,,0.227
2021-04-15T15:17:40.46Z,urn:nasa:pds:juno_jiram:data_raw:jir_img_edr_2021105t151742_v01,2021-04-15T15:17:40.417Z,2021-04-15T15:17:40.517Z,IO,urn:nasa:pds:context:target:satellite.jupiter.io,-0.059482,342.433,9.2096,84.4117,608597.7475,606717.2279,-66.5363,84.85,0.673,359.126,145612.1347,145612.1347,,,,,,,,,,,,,0.227
2021-04-15T15:18:10.51Z,urn:nasa:pds:juno_jiram:data_raw:jir_img_edr_2021105t151812_v01,2021-04-15T15:18:10.467Z,2021-04-15T15:18:10.567Z,IO,urn:nasa:pds:context:target:satellite.jupiter.io,-0.059481,342.3623,9.218,84.3127,608726.8068,606846.2751,-65.8397,89.4901,1.915,359.1794,145643.106,145643.106,,,,,,,,,,,,,0.227
2021-04-15T15:18:40.56Z,urn:nasa:pds:juno_jiram:data_raw:jir_img_edr_2021105t151842_v01,2021-04-15T15:18:40.516Z,2021-04-15T15:18:40.616Z,IO,urn:nasa:pds:context:target:satellite.jupiter.io,-0.059479,342.2916,9.2264,84.2137,608855.7868,606975.2433,-64.8345,76.4978,0.36,356.5894,145674.0584,145674.0584,,,,,,,,,,,,,0.227
2021-04-15T15:19:10.61Z,urn:nasa:pds:juno_jiram:data_raw:jir_img_edr_2021105t151912_v01,2021-04-15T15:19:10.566Z,2021-04-15T15:19:10.666Z,IO,urn:nasa:pds:context:target:satellite.jupiter.io,-0.059477,342.2209,9.2348,84.1148,608984.686,607104.1306,-73.3951,79.4763,2.417,355.1025,145704.9913,145704.9913,,,,,,,,,,,,,0.227
2021-04-15T15:19:40.66Z,urn:nasa:pds:juno_jiram:data_raw:jir_img_edr_2021105t151943_v01,2021-04-15T15:19:40.616Z,2021-04-15T15:19:40.716Z,IO,urn:nasa:pds:context:target:satellite.jupiter.io,-0.059475,342.1502,9.2432,84.0159,609113.5024,607232.9351,-70.1401,82.4141,0.681,357.4327,145735.9044,145735.9044,,,,,,,,,,,,,0.227
2021-04-15T15:21:10.84Z,urn:nasa:pds:juno_jiram:data_raw:jir_img_edr_2021105t152113_v01,2021-04-15T15:21:10.819Z,2021-04-15T15:21:10.869Z,IO,urn:nasa:pds:context:target:satellite.jupiter.io,-0.05947,341.938,9.2684,83.7196,609499.6619,607619.0596,-65.3882,10.4056,2.446,167.9115,145828.5743,145828.5743,,,,56.8449,87.0256,4.91,349.2155,145828.5285,145828.5285,,,,0.227
2021-04-15T15:21:40.89Z,urn:nasa:pds:juno_jiram:data_raw:jir_img_edr_2021105t152143_v01,2021-04-15T15:21:40.873Z,2021-04-15T15:21:40.923Z,IO,urn:nasa:pds:context:target:satellite.jupiter.io,-0.059469,341.8672,9.2768,83.6209,609628.1449,607747.531,-70.3054,-9.7848,5.278,157.9271,145859.4074,145859.4074,,,,29.6745,81.277,2.239,357.8673,145859.3616,145859.3616,,,,0.227
2021-04-15T15:22:10.95Z,urn:nasa:pds:juno_jiram:data_raw:jir_img_edr_2021105t152213_v01,2021-04-15T15:22:10.925Z,2021-04-15T15:22:10.975Z,IO,urn:nasa:pds:context:target:satellite.jupiter.io,-0.059467,341.7965,9.2852,83.5224,609756.527,607875.9017,-63.7647,-23.0039,11.086,165.0453,145890.2164,145890.2164,,,,17.0441,88.6305,5.499,352.8689,145890.1705,145890.1705,,,,0.227
2021-04-15T15:22:41.00Z,urn:nasa:pds:juno_jiram:data_raw:jir_img_edr_2021105t152243_v01,2021-04-15T15:22:40.976Z,2021-04-15T15:22:41.026Z,IO,urn:nasa:pds:context:target:satellite.jupiter.io,-0.059465,341.7258,9.2936,83.4239,609884.8106,608004.1739,-76.9831,-32.9795,25.48,143.9951,145921.0017,145921.0017,,,,8.6759,77.1671,1.734,359.6137,145920.9559,145920.9559,,,,0.227
2021-04-15T15:23:11.50Z,urn:nasa:pds:juno_jiram:data_raw:jir_img_edr_2021105t152313_v01,2021-04-15T15:23:11.028Z,2021-04-15T15:23:11.078Z,IO,urn:nasa:pds:context:target:satellite.jupiter.io,-0.059463,341.6551,9.3019,83.3254,610013.0025,608132.3544,-67.9775,-52.6556,29.888,140.4661,145951.7651,145951.7651,,,,-2.901,82.8332,1.402,359.9296,145951.7192,145951.7192,,,,0.227
2021-04-15T15:23:41.11Z,urn:nasa:pds:juno_jiram:data_raw:jir_img_edr_2021105t152343_v01,2021-04-15T15:23:41.080Z,2021-04-15T15:23:41.130Z,IO,urn:nasa:pds:context:target:satellite.jupiter.io,-0.059462,341.5844,9.3103,83.227,610141.0965,608260.4371,,,,,,,,,,-14.9801,87.7649,1.996,359.3826,145982.5049,145982.5049,,,,0.227
2021-04-15T15:24:11.16Z,urn:nasa:pds:juno_jiram:data_raw:jir_img_edr_2021105t152413_v01,2021-04-15T15:24:11.131Z,2021-04-15T15:24:11.181Z,IO,urn:nasa:pds:context:target:satellite.jupiter.io,-0.05946,341.5137,9.3187,83.1287,610269.0864,608388.4158,,,,,,,,,,-22.7244,77.6974,0.025,357.6303,146013.2198,146013.2198,,,,0.227
2021-04-15T15:24:41.21Z,urn:nasa:pds:juno_jiram:data_raw:jir_img_edr_2021105t152443_v01,2021-04-15T15:24:41.184Z,2021-04-15T15:24:41.234Z,IO,urn:nasa:pds:context:target:satellite.jupiter.io,-0.059458,341.443,9.327,83.0304,610396.9831,608516.3015,,,,,,,,,,-43.7636,85.651,0.149,357.617,146043.9123,146043.9123,,,,0.227
2021-04-15T15:25:11.26Z,urn:nasa:pds:juno_jiram:data_raw:jir_img_edr_2021105t152513_v01,2021-04-15T15:25:11.235Z,2021-04-15T15:25:11.285Z,IO,urn:nasa:pds:context:target:satellite.jupiter.io,-0.059457,341.3723,9.3354,82.9322,610524.7679,608644.0752,,,,,,,,,,-56.5606,87.4492,0.078,359.4962,146074.578,146074.578,,,,0.227
2021-04-15T15:25:41.31Z,urn:nasa:pds:juno_jiram:data_raw:jir_img_edr_2021105t152543_v01,2021-04-15T15:25:41.287Z,2021-04-15T15:25:41.337Z,IO,urn:nasa:pds:context:target:satellite.jupiter.io,-0.059455,341.3016,9.3437,82.834,610652.4515,608771.7478,,,,,,,,,,-75.719,79.7759,0.56,357.6888,146105.2195,146105.2195,,,,0.227
2021-04-15T15:26:11.36Z,urn:nasa:pds:juno_jiram:data_raw:jir_img_edr_2021105t152613_v01,2021-04-15T15:26:11.339Z,2021-04-15T15:26:11.389Z,IO,urn:nasa:pds:context:target:satellite.jupiter.io,-0.059453,341.2309,9.3521,82.7359,610780.0278,608899.3132,,,,,,,,,,-68.0529,86.18,0.82,359.5036,146135.8352,146135.8352,,,,0.227
2021-04-15T15:26:41.42Z,urn:nasa:pds:juno_jiram:data_raw:jir_img_edr_2021105t152643_v01,2021-04-15T15:26:41.390Z,2021-04-15T15:26:41.440Z,IO,urn:nasa:pds:context:target:satellite.jupiter.io,-0.059451,341.1602,9.3604,82.6379,610907.4908,609026.7654,,,,,,,,,,-64.024,86.1941,0.877,353.1849,146166.4237,146166.4237,,,,0.227
2021-04-15T15:27:11.47Z,urn:nasa:pds:juno_jiram:data_raw:jir_img_edr_2021105t152713_v01,2021-04-15T15:27:11.442Z,2021-04-15T15:27:11.492Z,IO,urn:nasa:pds:context:target:satellite.jupiter.io,-0.05945,341.0895,9.3688,82.5399,611034.8471,609154.1109,,,,,,,,,,-74.8471,80.3426,0.18,359.7884,146196.9866,146196.9866,,,,0.227
2021-04-15T15:27:41.52Z,urn:nasa:pds:juno_jiram:data_raw:jir_img_edr_2021105t152743_v01,2021-04-15T15:27:41.493Z,2021-04-15T15:27:41.543Z,IO,urn:nasa:pds:context:target:satellite.jupiter.io,-0.059448,341.0188,9.3771,82.442,611162.0863,609281.3393,,,,,,,,,,-69.0029,84.7323,2.325,359.6622,146227.5214,146227.5214,,,,0.227
2021-04-15T15:28:11.57Z,urn:nasa:pds:juno_jiram:data_raw:jir_img_edr_2021105t152813_v01,2021-04-15T15:28:11.546Z,2021-04-15T15:28:11.596Z,IO,urn:nasa:pds:context:target:satellite.jupiter.io,-0.059446,340.948,9.3854,82.3441,611289.2193,609408.4617,,,,,,,,,,-61.5882,77.5753,0.651,357.4581,146258.0308,146258.0308,,,,0.227
2021-04-15T15:28:41.62Z,urn:nasa:pds:juno_jiram:data_raw:jir_img_edr_2021105t152843_v01,2021-04-15T15:28:41.597Z,2021-04-15T15:28:41.647Z,IO,urn:nasa:pds:context:target:satellite.jupiter.io,-0.059445,340.8773,9.3937,82.2463,611416.2273,609535.4591,,,,,,,,,,-74.36,80.8875,0.525,359.3661,146288.5102,146288.5102,,,,0.227
2021-04-15T15:29:11.67Z,urn:nasa:pds:juno_jiram:data_raw:jir_img_edr_2021105t152914_v01,2021-04-15T15:29:11.649Z,2021-04-15T15:29:11.699Z,IO,urn:nasa:pds:context:target:satellite.jupiter.io,-0.059443,340.8066,9.4021,82.1485,611543.1212,609662.3425,,,,,,,,,,-65.6572,88.3685,0.212,358.2947,146318.9622,146318.9622,,,,0.227
2021-04-15T15:29:41.73Z,urn:nasa:pds:juno_jiram:data_raw:jir_img_edr_2021105t152944_v01,2021-04-15T15:29:41.700Z,2021-04-15T15:29:41.750Z,IO,urn:nasa:pds:context:target:satellite.jupiter.io,-0.059441,340.7359,9.4104,82.0509,611669.8905,609789.1014,,,,,,,,,,-62.3709,77.1877,0.485,358.166,146349.3843,146349.3843,,,,0.227
2021-04-15T15:30:11.78Z,urn:nasa:pds:juno_jiram:data_raw:jir_img_edr_2021105t153014_v01,2021-04-15T15:30:11.752Z,2021-04-15T15:30:11.802Z,IO,urn:nasa:pds:context:target:satellite.jupiter.io,-0.059439,340.6652,9.4187,81.9532,611796.5421,609915.7426,,,,,,,,,,-69.8499,83.2325,0.085,358.5647,146379.7782,146379.7782,,,,0.227
2021-04-15T15:30:41.83Z,urn:nasa:pds:juno_jiram:data_raw:jir_img_edr_2021105t153044_v01,2021-04-15T15:30:41.804Z,2021-04-15T15:30:41.854Z,IO,urn:nasa:pds:context:target:satellite.jupiter.io,-0.059438,340.5945,9.427,81.8556,611923.0697,610042.26,,,,,,,,,,-65.564,84.5396,1.276,357.5524,146410.1424,146410.1424,,,,0.227
2021-04-15T15:32:41.97Z,urn:nasa:pds:juno_jiram:data_raw:jir_img_edr_2021105t153244_v01,2021-04-15T15:32:41.949Z,2021-04-15T15:32:41.999Z,IO,urn:nasa:pds:context:target:satellite.jupiter.io,-0.059431,340.3118,9.4601,81.4661,612427.6443,610546.7942,-65.624,-3.2324,6.567,155.9405,146531.2306,146531.2306,,,,38.1714,87.9266,0.759,358.0696,146531.1846,146531.1846,,,,0.227
2021-04-15T15:33:12.30Z,urn:nasa:pds:juno_jiram:data_raw:jir_img_edr_2021105t153314_v01,2021-04-15T15:33:12.002Z,2021-04-15T15:33:12.052Z,IO,urn:nasa:pds:context:target:satellite.jupiter.io,-0.059429,340.2411,9.4684,81.3688,612553.5292,610672.6691,-75.1802,-21.0672,7.569,151.5545,146561.4406,146561.4406,,,,18.9987,78.9687,3.407,359.8319,146561.3946,146561.3946,,,,0.227
2021-04-15T15:33:42.80Z,urn:nasa:pds:juno_jiram:data_raw:jir_img_edr_2021105t153344_v01,2021-04-15T15:33:42.054Z,2021-04-15T15:33:42.104Z,IO,urn:nasa:pds:context:target:satellite.jupiter.io,-0.059428,340.1704,9.4767,81.2715,612679.275,610798.405,-68.6222,-36.8373,11.057,153.531,146591.6172,146591.6172,,,,5.2181,84.1372,2.908,354.2423,146591.5712,146591.5712,,,,0.227
2021-04-15T15:34:12.13Z,urn:nasa:pds:juno_jiram:data_raw:jir_img_edr_2021105t153414_v01,2021-04-15T15:34:12.106Z,2021-04-15T15:34:12.156Z,IO,urn:nasa:pds:context:target:satellite.jupiter.io,-0.059426,340.0997,9.485,81.1743,612804.884,610924.0042,-63.7658,-60.2298,43.815,120.9368,146621.761,146621.761,,,,-6.7227,85.976,0.926,359.9027,146621.715,146621.715,,,,0.227
2021-04-15T15:34:42.18Z,urn:nasa:pds:juno_jiram:data_raw:jir_img_edr_2021105t153444_v01,2021-04-15T15:34:42.158Z,2021-04-15T15:34:42.208Z,IO,urn:nasa:pds:context:target:satellite.jupiter.io,-0.059424,340.029,9.4932,81.0772,612930.3544,611049.4649,,,,,,,,,,-20.1268,80.3822,0.339,359.6356,146651.8716,146651.8716,,,,0.227
2021-04-15T15:35:12.23Z,urn:nasa:pds:juno_jiram:data_raw:jir_img_edr_2021105t153514_v01,2021-04-15T15:35:12.209Z,2021-04-15T15:35:12.259Z,IO,urn:nasa:pds:context:target:satellite.jupiter.io,-0.059422,339.9583,9.5015,80.9801,613055.6802,611174.7811,,,,,,,,,,-27.6833,85.1161,2.115,359.446,146681.9475,146681.9475,,,,0.227
2021-04-15T15:35:42.29Z,urn:nasa:pds:juno_jiram:data_raw:jir_img_edr_2021105t153544_v01,2021-04-15T15:35:42.262Z,2021-04-15T15:35:42.312Z,IO,urn:nasa:pds:context:target:satellite.jupiter.io,-0.059421,339.8876,9.5097,80.8831,613180.8722,611299.9635,,,,,,,,,,-48.2243,77.9299,2.746,358.7881,146711.9912,146711.9912,,,,0.227
2021-04-15T15:36:12.34Z,urn:nasa:pds:juno_jiram:data_raw:jir_img_edr_2021105t153614_v01,2021-04-15T15:36:12.314Z,2021-04-15T15:36:12.364Z,IO,urn:nasa:pds:context:target:satellite.jupiter.io,-0.059419,339.8169,9.518,80.7862,613305.9158,611424.9977,,,,,,,,,,-71.9564,83.3107,0.355,359.0294,146741.9994,146741.9994,,,,0.227
2021-04-15T15:36:42.39Z,urn:nasa:pds:juno_jiram:data_raw:jir_img_edr_2021105t153644_v01,2021-04-15T15:36:42.366Z,2021-04-15T15:36:42.416Z,IO,urn:nasa:pds:context:target:satellite.jupiter.io,-0.059417,339.7461,9.5262,80.6893,613430.8136,611549.886,,,,,,,,,,-66.8191,86.8029,0.112,359.1955,146771.9726,146771.9726,,,,0.227
2021-04-15T15:37:12.44Z,urn:nasa:pds:juno_jiram:data_raw:jir_img_edr_2021105t153714_v01,2021-04-15T15:37:12.418Z,2021-04-15T15:37:12.468Z,IO,urn:nasa:pds:context:target:satellite.jupiter.io,-0.059416,339.6754,9.5345,80.5924,613555.5637,611674.6267,,,,,,,,,,-62.2714,79.6334,0.479,358.944,146801.9104,146801.9104,,,,0.227
2021-04-15T15:37:42.50Z,urn:nasa:pds:juno_jiram:data_raw:jir_img_edr_2021105t153744_v01,2021-04-15T15:37:42.470Z,2021-04-15T15:37:42.520Z,IO,urn:nasa:pds:context:target:satellite.jupiter.io,-0.059414,339.6047,9.5427,80.4956,613680.1643,611799.218,,,,,,,,,,-69.5013,85.3768,3.462,359.3119,146831.8123,146831.8123,,,,0.227